YAOGAN-30 AA (48860 NORAD) Tracking and Keplerian Element Data

This shows tracking and keplerian element data for the satellite.

Feedback or suggestion? Click here.




ElementValue
Catalog48860
NameYAOGAN-30 AA
Epoch Orbit1767
Epoch Day287.88822502
Epoch Year2021
RAAN351.5843
Inclination34.9975
Eccentricity0.0005338
Argument of Perigee53.7628
Mean Anonmoly306.3569
Mean Motion14.90003339
Decay Rate5.1E-06
L11 48860U 21055A 21287.88822502 .00000510 00000-0 54688-4 0 9995
L22 48860 34.9975 351.5843 0005338 53.7628 306.3569 14.90003339 17679

Live tracking and technical data element details for YAOGAN-30 AA (NORAD 48860). YAOGAN-30 AA can be tracked NOW for your location showing map with azimuth and elevation plus other details from your city location.

Track the satellite on the map from your city or location and see movement details for azimuth, elevation, latitude, longitude, range, height, and movement on the map or in text.







IsCatalogInMostPopularTable: catalog: 48860, numindb: 30
Update: records affected: 1



GetName: 48860 YAOGAN-30 AA

Hit Count: updated at: Tue, 19 Oct 2021 08:41:48 GMT